Terug naar catalogus

USA 473

ActiefMilitairVLEO
NORAD 62542·PAYLOAD·🇺🇸 United States

Gelanceerd Jan 10, 2025 vanaf Vandenberg Space Force Base

Loading…

Volgende Passages (komende 24 uur)

TLE

VerouderdSource: Mike McCants

Epoch: Aug 21, 2026, 20:57 UTC

1 62542U 25005L   26233.87340963 0.00000000  00000-0  00000-0 0    00
2 62542  70.0200 252.1175 0003000 135.4484 224.5515 14.96713439    06

Volg USA 473 in realtime met AllMySat

Download on the App Store